Time,TemperatureF,DewpointF,PressureIn,WindDirection,WindDirectionDegrees,WindSpeedMPH,WindSpeedGustMPH,Humidity,HourlyPrecipIn,Conditions,Clouds,dailyrainin,SolarRadiationWatts/m^2,SoftwareType,DateUTC
2013-05-22 00:15:00,69.0,68.0,29.97,East,91,0.0,0.0,96,0.00,,,0.00,0,weatherlink.com 1.10,2013-05-22 04:15:00,
2013-05-22 00:30:00,68.6,67.0,29.96,East,91,0.0,0.0,95,0.00,,,0.00,0,weatherlink.com 1.10,2013-05-22 04:30:00,
2013-05-22 00:45:00,68.6,68.0,29.96,SE,132,0.0,2.0,96,0.00,,,0.00,0,weatherlink.com 1.10,2013-05-22 04:45:00,
2013-05-22 01:00:00,68.4,67.0,29.96,SE,132,0.0,0.0,96,0.00,,,0.00,0,weatherlink.com 1.10,2013-05-22 05:00:00,
2013-05-22 01:15:00,67.8,66.0,29.96,SE,132,0.0,0.0,95,0.00,,,0.00,0,weatherlink.com 1.10,2013-05-22 05:15:00,
2013-05-22 01:30:00,67.5,66.0,29.95,SE,132,0.0,1.0,96,0.00,,,0.00,0,weatherlink.com 1.10,2013-05-22 05:30:00,
2013-05-22 01:45:00,67.4,66.0,29.95,SE,132,0.0,0.0,96,0.00,,,0.00,0,weatherlink.com 1.10,2013-05-22 05:45:00,
2013-05-22 02:00:00,66.8,66.0,29.95,SE,132,0.0,0.0,96,0.00,,,0.00,0,weatherlink.com 1.10,2013-05-22 06:00:00,
2013-05-22 02:16:00,66.3,65.0,29.95,SE,132,0.0,0.0,96,0.00,,,0.00,0,weatherlink.com 1.10,2013-05-22 06:16:00,
2013-05-22 02:30:00,66.5,65.0,29.94,SE,132,0.0,0.0,96,0.00,,,0.00,0,weatherlink.com 1.10,2013-05-22 06:30:00,
2013-05-22 02:45:00,66.2,65.0,29.94,SE,132,0.0,0.0,96,0.00,,,0.00,0,weatherlink.com 1.10,2013-05-22 06:45:00,
2013-05-22 03:01:00,66.3,66.0,29.94,SE,132,0.0,0.0,97,0.00,,,0.00,0,weatherlink.com 1.10,2013-05-22 07:01:00,
2013-05-22 03:15:00,65.9,65.0,29.94,SE,132,0.0,0.0,96,0.00,,,0.00,0,weatherlink.com 1.10,2013-05-22 07:15:00,
2013-05-22 03:31:00,66.1,65.0,29.93,SE,132,0.0,1.0,97,0.00,,,0.00,0,weatherlink.com 1.10,2013-05-22 07:31:00,
2013-05-22 03:46:00,66.5,66.0,29.94,SE,132,0.0,0.0,97,0.00,,,0.00,0,weatherlink.com 1.10,2013-05-22 07:46:00,
2013-05-22 04:01:00,66.5,66.0,29.94,SE,132,0.0,0.0,97,0.00,,,0.00,0,weatherlink.com 1.10,2013-05-22 08:01:00,
2013-05-22 04:16:00,66.5,66.0,29.94,SE,132,0.0,0.0,97,0.00,,,0.00,0,weatherlink.com 1.10,2013-05-22 08:16:00,
2013-05-22 04:31:00,66.3,66.0,29.94,SE,132,0.0,1.0,97,0.00,,,0.00,0,weatherlink.com 1.10,2013-05-22 08:31:00,
2013-05-22 04:46:00,66.1,65.0,29.94,SE,132,0.0,0.0,97,0.00,,,0.00,0,weatherlink.com 1.10,2013-05-22 08:46:00,
2013-05-22 05:01:00,65.8,65.0,29.94,ESE,109,0.0,1.0,97,0.00,,,0.00,0,weatherlink.com 1.10,2013-05-22 09:01:00,
2013-05-22 05:16:00,66.1,65.0,29.94,ESE,109,0.0,1.0,97,0.00,,,0.00,0,weatherlink.com 1.10,2013-05-22 09:16:00,
2013-05-22 05:31:00,66.0,65.0,29.94,ENE,78,0.0,1.0,97,0.00,,,0.00,0,weatherlink.com 1.10,2013-05-22 09:31:00,
2013-05-22 05:46:00,66.2,65.0,29.95,NW,326,0.0,2.0,97,0.00,,,0.00,0,weatherlink.com 1.10,2013-05-22 09:46:00,
2013-05-22 06:01:00,66.3,66.0,29.95,NW,326,0.0,1.0,97,0.00,,,0.00,0,weatherlink.com 1.10,2013-05-22 10:01:00,
2013-05-22 06:16:00,66.1,66.0,29.95,NW,326,0.0,0.0,98,0.00,,,0.00,0,weatherlink.com 1.10,2013-05-22 10:16:00,
2013-05-22 06:31:00,65.9,65.0,29.95,NW,326,0.0,1.0,98,0.00,,,0.00,0,weatherlink.com 1.10,2013-05-22 10:31:00,
2013-05-22 06:47:00,65.9,65.0,29.96,NW,326,0.0,0.0,98,0.00,,,0.00,14,weatherlink.com 1.10,2013-05-22 10:47:00,
2013-05-22 07:01:00,66.2,66.0,29.96,NW,326,0.0,0.0,98,0.00,,,0.00,30,weatherlink.com 1.10,2013-05-22 11:01:00,
2013-05-22 07:17:00,66.6,66.0,29.96,NW,326,0.0,0.0,98,0.00,,,0.00,60,weatherlink.com 1.10,2013-05-22 11:17:00,
2013-05-22 07:32:00,67.2,67.0,29.96,NNW,327,0.0,1.0,98,0.00,,,0.00,81,weatherlink.com 1.10,2013-05-22 11:32:00,
2013-05-22 07:47:00,68.5,68.0,29.96,East,85,0.0,2.0,98,0.00,,,0.00,118,weatherlink.com 1.10,2013-05-22 11:47:00,
2013-05-22 08:02:00,69.9,69.0,29.96,East,93,0.0,3.0,98,0.00,,,0.00,193,weatherlink.com 1.10,2013-05-22 12:02:00,
2013-05-22 08:17:00,71.5,71.0,29.96,South,173,1.0,2.0,98,0.00,,,0.00,290,weatherlink.com 1.10,2013-05-22 12:17:00,
2013-05-22 08:32:00,72.0,71.0,29.97,SSE,152,0.0,2.0,98,0.00,,,0.00,199,weatherlink.com 1.10,2013-05-22 12:32:00,
2013-05-22 08:47:00,72.6,72.0,29.97,East,101,0.0,2.0,98,0.00,,,0.00,167,weatherlink.com 1.10,2013-05-22 12:47:00,
2013-05-22 09:02:00,72.9,72.0,29.98,SSE,147,0.0,4.0,98,0.00,,,0.00,185,weatherlink.com 1.10,2013-05-22 13:02:00,
2013-05-22 09:17:00,73.9,73.0,29.98,SSE,166,0.0,6.0,97,0.00,,,0.00,272,weatherlink.com 1.10,2013-05-22 13:17:00,
2013-05-22 09:34:00,74.6,72.0,29.98,SSE,161,1.0,5.0,91,0.00,,,0.00,260,weatherlink.com 1.10,2013-05-22 13:34:00,
2013-05-22 09:48:00,76.1,72.0,29.98,South,180,3.0,7.0,87,0.00,,,0.00,775,weatherlink.com 1.10,2013-05-22 13:48:00,
2013-05-22 10:04:00,76.5,71.0,29.98,SSW,208,3.0,7.0,83,0.00,,,0.00,250,weatherlink.com 1.10,2013-05-22 14:04:00,
2013-05-22 10:18:00,77.4,71.0,29.98,WSW,247,1.0,6.0,81,0.00,,,0.00,823,weatherlink.com 1.10,2013-05-22 14:18:00,
2013-05-22 10:34:00,77.3,71.0,29.98,ESE,113,1.0,5.0,81,0.00,,,0.00,788,weatherlink.com 1.10,2013-05-22 14:34:00,
2013-05-22 10:48:00,79.1,71.0,29.98,SSW,201,0.0,4.0,77,0.00,,,0.00,330,weatherlink.com 1.10,2013-05-22 14:48:00,
2013-05-22 11:04:00,78.6,70.0,29.98,WSW,257,4.0,5.0,75,0.00,,,0.00,888,weatherlink.com 1.10,2013-05-22 15:04:00,
2013-05-22 11:18:00,79.7,71.0,29.98,West,261,0.0,7.0,74,0.00,,,0.00,879,weatherlink.com 1.10,2013-05-22 15:18:00,
2013-05-22 11:34:00,80.7,71.0,29.98,West,278,1.0,5.0,73,0.00,,,0.00,935,weatherlink.com 1.10,2013-05-22 15:34:00,
2013-05-22 11:48:00,81.1,71.0,29.98,WSW,248,6.0,7.0,72,0.00,,,0.00,1088,weatherlink.com 1.10,2013-05-22 15:48:00,
2013-05-22 12:04:00,81.3,71.0,29.97,NW,307,1.0,6.0,70,0.00,,,0.00,248,weatherlink.com 1.10,2013-05-22 16:04:00,
2013-05-22 12:19:00,81.1,71.0,29.97,NW,315,1.0,5.0,71,0.00,,,0.00,241,weatherlink.com 1.10,2013-05-22 16:19:00,
2013-05-22 12:34:00,81.9,70.0,29.97,West,275,0.0,6.0,67,0.00,,,0.00,265,weatherlink.com 1.10,2013-05-22 16:34:00,
2013-05-22 12:49:00,83.0,70.0,29.96,WNW,283,2.0,5.0,66,0.00,,,0.00,617,weatherlink.com 1.10,2013-05-22 16:49:00,
2013-05-22 13:04:00,82.4,70.0,29.96,WSW,245,2.0,7.0,67,0.00,,,0.00,304,weatherlink.com 1.10,2013-05-22 17:04:00,
2013-05-22 13:19:00,83.6,71.0,29.95,East,90,1.0,3.0,65,0.00,,,0.00,1199,weatherlink.com 1.10,2013-05-22 17:19:00,
2013-05-22 13:34:00,83.4,69.0,29.94,West,269,1.0,2.0,62,0.00,,,0.00,294,weatherlink.com 1.10,2013-05-22 17:34:00,
2013-05-22 13:49:00,82.7,70.0,29.95,ESE,107,0.0,6.0,66,0.00,,,0.00,195,weatherlink.com 1.10,2013-05-22 17:49:00,
2013-05-22 14:04:00,79.4,71.0,29.95,East,99,2.0,11.0,75,0.00,,,0.00,169,weatherlink.com 1.10,2013-05-22 18:04:00,
2013-05-22 14:19:00,77.9,71.0,29.95,ESE,109,1.0,5.0,79,0.00,,,0.00,427,weatherlink.com 1.10,2013-05-22 18:19:00,
2013-05-22 14:34:00,79.0,73.0,29.95,ENE,69,3.0,13.0,81,0.00,,,0.00,1215,weatherlink.com 1.10,2013-05-22 18:34:00,
2013-05-22 14:49:00,79.8,72.0,29.95,NE,39,3.0,10.0,76,0.00,,,0.00,1167,weatherlink.com 1.10,2013-05-22 18:49:00,
2013-05-22 15:04:00,80.5,72.0,29.94,ESE,115,4.0,12.0,74,0.00,,,0.00,466,weatherlink.com 1.10,2013-05-22 19:04:00,
2013-05-22 15:19:00,78.7,72.0,29.94,NNE,28,6.0,13.0,79,0.00,,,0.00,381,weatherlink.com 1.10,2013-05-22 19:19:00,
2013-05-22 15:34:00,79.2,72.0,29.93,East,81,8.0,11.0,78,0.00,,,0.00,814,weatherlink.com 1.10,2013-05-22 19:34:00,
2013-05-22 15:49:00,80.8,73.0,29.92,NNW,336,6.0,10.0,76,0.00,,,0.00,865,weatherlink.com 1.10,2013-05-22 19:49:00,
2013-05-22 16:04:00,80.8,73.0,29.93,South,186,3.0,12.0,76,0.00,,,0.00,826,weatherlink.com 1.10,2013-05-22 20:04:00,
2013-05-22 16:20:00,81.2,72.0,29.92,SE,132,3.0,9.0,74,0.00,,,0.00,817,weatherlink.com 1.10,2013-05-22 20:20:00,
2013-05-22 16:35:00,81.8,72.0,29.91,East,89,3.0,8.0,72,0.00,,,0.00,236,weatherlink.com 1.10,2013-05-22 20:35:00,
2013-05-22 16:50:00,81.4,72.0,29.91,ENE,61,3.0,10.0,72,0.00,,,0.00,773,weatherlink.com 1.10,2013-05-22 20:50:00,
2013-05-22 17:05:00,81.8,71.0,29.91,NE,42,3.0,7.0,70,0.00,,,0.00,172,weatherlink.com 1.10,2013-05-22 21:05:00,
2013-05-22 17:20:00,80.4,72.0,29.90,NE,44,5.0,8.0,75,0.00,,,0.00,200,weatherlink.com 1.10,2013-05-22 21:20:00,
2013-05-22 17:35:00,80.1,71.0,29.90,East,89,2.0,8.0,74,0.00,,,0.00,206,weatherlink.com 1.10,2013-05-22 21:35:00,
2013-05-22 17:50:00,80.2,72.0,29.91,ENE,66,3.0,7.0,77,0.00,,,0.00,197,weatherlink.com 1.10,2013-05-22 21:50:00,
2013-05-22 18:05:00,80.3,73.0,29.90,East,90,6.0,11.0,78,0.00,,,0.00,236,weatherlink.com 1.10,2013-05-22 22:05:00,
2013-05-22 18:20:00,79.7,72.0,29.91,ESE,111,1.0,10.0,77,0.00,,,0.00,480,weatherlink.com 1.10,2013-05-22 22:20:00,
2013-05-22 18:35:00,79.2,71.0,29.91,ESE,112,5.0,9.0,76,0.00,,,0.00,158,weatherlink.com 1.10,2013-05-22 22:35:00,
2013-05-22 18:50:00,78.8,71.0,29.90,East,92,5.0,9.0,78,0.00,,,0.00,248,weatherlink.com 1.10,2013-05-22 22:50:00,
2013-05-22 19:05:00,78.4,71.0,29.91,East,96,2.0,9.0,78,0.00,,,0.00,192,weatherlink.com 1.10,2013-05-22 23:05:00,
2013-05-22 19:20:00,78.7,71.0,29.91,ESE,105,0.0,4.0,78,0.00,,,0.00,141,weatherlink.com 1.10,2013-05-22 23:20:00,
2013-05-22 19:35:00,78.4,71.0,29.92,ESE,114,0.0,4.0,77,0.00,,,0.00,39,weatherlink.com 1.10,2013-05-22 23:35:00,
2013-05-22 19:51:00,77.6,71.0,29.92,ESE,102,0.0,3.0,80,0.00,,,0.00,25,weatherlink.com 1.10,2013-05-22 23:51:00,
2013-05-22 20:06:00,76.6,70.0,29.92,East,85,0.0,3.0,80,0.00,,,0.00,11,weatherlink.com 1.10,2013-05-23 00:06:00,
2013-05-22 20:21:00,75.6,70.0,29.92,East,94,0.0,3.0,82,0.00,,,0.00,0,weatherlink.com 1.10,2013-05-23 00:21:00,
2013-05-22 20:36:00,74.9,70.0,29.93,ENE,78,0.0,1.0,84,0.00,,,0.00,0,weatherlink.com 1.10,2013-05-23 00:36:00,
2013-05-22 20:51:00,74.4,70.0,29.92,ENE,78,0.0,0.0,85,0.00,,,0.00,0,weatherlink.com 1.10,2013-05-23 00:51:00,
2013-05-22 21:06:00,73.7,70.0,29.93,ENE,78,0.0,0.0,87,0.00,,,0.00,0,weatherlink.com 1.10,2013-05-23 01:06:00,
2013-05-22 21:21:00,73.1,69.0,29.93,East,79,0.0,1.0,88,0.00,,,0.00,0,weatherlink.com 1.10,2013-05-23 01:21:00,
2013-05-22 21:36:00,72.8,70.0,29.93,East,79,0.0,0.0,89,0.00,,,0.00,0,weatherlink.com 1.10,2013-05-23 01:36:00,
2013-05-22 21:51:00,72.4,69.0,29.93,East,79,0.0,0.0,90,0.00,,,0.00,0,weatherlink.com 1.10,2013-05-23 01:51:00,
2013-05-22 22:06:00,72.1,69.0,29.94,East,79,0.0,0.0,91,0.00,,,0.00,0,weatherlink.com 1.10,2013-05-23 02:06:00,
2013-05-22 22:21:00,71.7,69.0,29.94,East,79,0.0,0.0,91,0.00,,,0.00,0,weatherlink.com 1.10,2013-05-23 02:21:00,
2013-05-22 22:36:00,71.4,69.0,29.94,East,79,0.0,0.0,92,0.00,,,0.00,0,weatherlink.com 1.10,2013-05-23 02:36:00,
2013-05-22 22:51:00,71.1,69.0,29.94,East,79,0.0,0.0,93,0.00,,,0.00,0,weatherlink.com 1.10,2013-05-23 02:51:00,
2013-05-22 23:21:00,70.5,69.0,29.95,East,79,0.0,0.0,94,0.00,,,0.00,0,weatherlink.com 1.10,2013-05-23 03:21:00,
2013-05-22 23:36:00,70.2,69.0,29.95,East,79,0.0,0.0,94,0.00,,,0.00,0,weatherlink.com 1.10,2013-05-23 03:36:00,
2013-05-22 23:51:00,69.8,68.0,29.94,East,79,0.0,0.0,94,0.00,,,0.00,0,weatherlink.com 1.10,2013-05-23 03:51:00,